Simultaneous Nadir Overpasses (SNOs) Predictions

Prediction of SNOs between GOES-16 and NOAA-20 Satellite Orbit:

Table of predicted SNOs for the next 14.0 days since TLE Epoch: 1/25/2020
Index Date Time (GOES-16) GOES-16 Lat,Lon NOAA-20 Lat,Lon Distance(km) Time Diff (sec)
1 01/25/2020 18:41:50 -0.06, -75.20 -0.84, -78.75 404.78 80
2 01/26/2020 18:20:26 -0.06, -75.20 0.14, -74.21 111.59 80
3 01/28/2020 06:44:54 0.07, -75.20 1.06, -79.48 489.08 80
4 01/29/2020 06:23:31 0.07, -75.20 0.01, -74.96 27.65 80
5 01/31/2020 18:29:24 -0.07, -75.23 -0.16, -75.74 57.83 80
6 02/01/2020 18:08:00 -0.07, -75.24 0.83, -71.20 459.48 80
7 02/03/2020 06:32:28 0.08, -75.24 0.37, -76.47 140.06 80
8 02/04/2020 06:11:05 0.08, -75.25 -0.67, -71.95 377.29 80
9 02/05/2020 18:35:42 -0.09, -75.28 -0.51, -77.25 224.57 80
10 02/06/2020 18:14:18 -0.09, -75.29 0.48, -72.72 292.95 80




NCC Satellite Simultaneous Nadir Overpasses (SNOs) Prediction Service
